IK3ZGB Weather Reports


time (UTC)temp
C
wind
direction
speed
KPH
gust
KPH
rain 1hr
cm
rain 24hr
cm
rain mn
cm
humidity
%
barometer
mb
20260507082846 22 0.0 0.0 0.00 0.00 0.00 64 1014.2
20260507081844 23 0.0 0.0 0.00 0.00 0.00 65 1013.9
20260507080844 23 0.0 0.0 0.00 0.00 0.00 66 1014.1
20260507075845 22 0.0 0.0 0.00 0.00 0.00 67 1014.2
20260507074844 22 0.0 0.0 0.00 0.00 0.00 67 1014.2
20260507073844 22 0.0 0.0 0.00 0.00 0.00 68 1014.3
20260507072844 22 0.0 0.0 0.00 0.00 0.00 69 1014.2
20260507071845 22 0.0 0.0 0.00 0.00 0.00 68 1014.4
20260507070844 22 0.0 0.0 0.00 0.00 0.00 68 1014.3
20260507065844 21 0.0 0.0 0.00 0.00 0.00 70 1014.1
20260507064845 21 0.0 0.0 0.00 0.00 0.00 69 1013.9
20260507063844 21 0.0 0.0 0.00 0.00 0.00 71 1013.9
20260507062845 20 0.0 0.0 0.00 0.00 0.00 71 1014.3
20260507061845 20 0.0 0.0 0.00 0.00 0.00 72 1014.4
20260507060845 18 0.0 0.0 0.00 0.00 0.00 72 1014.5
20260507055844 17 0.0 0.0 0.00 0.00 0.00 73 1014.6
20260507054846 21 0.0 0.0 0.00 0.00 0.00 76 1014.3
20260507053844 14 0.0 0.0 0.00 0.00 0.00 80 1014.0
20260507052844 14 0.0 0.0 0.00 0.00 0.00 80 1014.1
20260507051845 14 0.0 0.0 0.00 0.00 0.00 80 1013.8
20260507050845 14 0.0 0.0 0.00 0.00 0.00 78 1014.1
20260507045845 15 0.0 0.0 0.00 0.00 0.00 76 1014.1
20260507044845 15 0.0 0.0 0.00 0.00 0.00 79 1013.9
20260507043845 13 0.0 0.0 0.00 0.00 0.00 81 1013.8
20260507042845 12 0.0 0.0 0.00 0.00 0.00 83 1013.8
20260507041844 12 0.0 0.0 0.00 0.00 0.00 83 1013.5
20260507040844 12 0.0 0.0 0.00 0.00 0.00 82 1013.5
20260507035844 12 0.0 0.0 0.00 0.00 0.00 83 1013.5
20260507034843 12 0.0 0.0 0.00 0.00 0.00 83 1013.0
20260507033844 12 0.0 0.0 0.00 0.00 0.00 83 1013.3
20260507032844 12 0.0 0.0 0.00 0.00 0.00 83 1013.2
20260507031845 12 0.0 0.0 0.00 0.00 0.00 83 1012.9
20260507030844 12 0.0 0.0 0.00 0.00 0.00 83 1013.1
20260507025845 12 0.0 0.0 0.00 0.00 0.00 83 1012.7
20260507024844 12 0.0 0.0 0.00 0.00 0.00 83 1012.8
20260507023845 12 0.0 0.0 0.00 0.00 0.00 83 1013.0
20260507022844 12 0.0 0.0 0.00 0.00 0.00 83 1013.3
20260507021844 12 0.0 0.0 0.00 0.00 0.00 83 1013.2
20260507020844 13 0.0 0.0 0.00 0.00 0.00 84 1013.0
20260507015844 12 0.0 0.0 0.00 0.00 0.00 83 1012.8
20260507014845 12 0.0 0.0 0.00 0.00 0.00 84 1012.7
20260507013845 13 0.0 0.0 0.00 0.00 0.00 84 1013.0
20260507012846 12 0.0 0.0 0.00 0.00 0.00 84 1012.7
20260507011844 13 0.0 0.0 0.00 0.00 0.00 83 1012.7
20260507010845 13 0.0 0.0 0.00 0.00 0.00 83 1012.9
20260507005845 13 0.0 0.0 0.00 0.00 0.00 84 1013.0
20260507004844 13 0.0 0.0 0.00 0.00 0.00 83 1012.9
20260507003844 13 0.0 0.0 0.00 0.00 0.00 83 1013.1
20260507002845 13 0.0 0.0 0.00 0.00 0.00 83 1013.0
20260507001844 13 0.0 0.0 0.00 0.00 0.00 83 1012.8
20260507000844 13 0.0 0.0 0.00 0.00 0.00 83 1012.9
20260506235844 13 0.0 0.0 0.00 0.00 0.00 83 1012.8
20260506234844 14 0.0 0.0 0.00 0.00 0.00 84 1012.8
20260506233844 14 0.0 0.0 0.00 0.00 0.00 84 1012.9
20260506232844 14 0.0 0.0 0.00 0.00 0.00 84 1013.0
20260506231845 14 0.0 0.0 0.00 0.00 0.00 84 1012.7
20260506230845 14 0.0 0.0 0.00 0.00 0.00 84 1012.8
20260506225844 14 0.0 0.0 0.00 0.00 0.00 84 1012.9
20260506224845 14 0.0 0.0 0.00 0.00 0.00 84 1012.9
20260506223844 14 0.0 0.0 0.00 0.00 0.00 84 1013.0
20260506222844 14 0.0 0.0 0.00 0.00 0.00 84 1012.9
20260506221845 14 0.0 0.0 0.00 0.00 0.00 84 1012.9
20260506220845 14 0.0 0.0 0.00 0.00 0.00 84 1012.8
20260506215844 14 0.0 0.0 0.00 0.00 0.00 84 1012.7
20260506214845 14 0.0 0.0 0.00 0.00 0.00 84 1012.4
20260506213843 14 0.0 0.0 0.00 0.00 0.00 84 1012.5
20260506212844 15 0.0 0.0 0.00 0.00 0.00 84 1012.6
20260506211844 15 0.0 0.0 0.00 0.00 0.00 83 1012.6
20260506210844 15 0.0 0.0 0.00 0.00 0.00 84 1012.5
20260506205844 15 0.0 0.0 0.00 0.00 0.00 83 1012.6
20260506204844 15 0.0 0.0 0.00 0.00 0.00 83 1012.6
20260506203844 15 0.0 0.0 0.00 0.00 0.00 84 1012.5
20260506202844 15 0.0 0.0 0.00 0.00 0.00 84 1012.6
20260506201846 15 0.0 0.0 0.00 0.00 0.00 84 1012.2
20260506200844 15 0.0 0.0 0.00 0.00 0.00 84 1012.2
20260506195845 15 0.0 0.0 0.00 0.00 0.00 84 1012.2
20260506194844 15 0.0 0.0 0.00 0.00 0.00 84 1012.2
20260506193844 15 0.0 0.0 0.00 0.00 0.00 83 1011.9
20260506192844 15 0.0 0.0 0.00 0.00 0.00 83 1011.7
20260506191844 15 0.0 0.0 0.00 0.00 0.00 83 1011.8
20260506190844 16 0.0 0.0 0.00 0.00 0.00 83 1011.8
20260506185844 16 0.0 0.0 0.00 0.00 0.00 83 1011.5
20260506184844 16 0.0 0.0 0.00 0.00 0.00 82 1011.5
20260506183844 16 0.0 0.0 0.00 0.00 0.00 83 1011.5
20260506182844 16 0.0 0.0 0.00 0.00 0.00 83 1011.4
20260506181844 16 0.0 0.0 0.00 0.00 0.00 83 1011.4
20260506180845 16 0.0 0.0 0.00 0.00 0.00 83 1011.4
20260506175845 16 0.0 0.0 0.00 0.00 0.00 83 1011.3
20260506174845 16 0.0 0.0 0.00 0.00 0.00 83 1011.2
20260506173845 16 0.0 0.0 0.00 0.00 0.00 83 1011.4
20260506172844 16 0.0 0.0 0.00 0.00 0.00 83 1011.2
20260506171843 17 0.0 0.0 0.00 0.00 0.00 82 1011.2
20260506170845 17 0.0 0.0 0.00 0.00 0.00 82 1011.2
20260506165845 17 0.0 0.0 0.00 0.00 0.00 82 1011.0
20260506164845 17 0.0 0.0 0.00 0.00 0.00 82 1011.4
20260506163844 17 0.0 0.0 0.00 0.00 0.00 83 1011.3
20260506162844 17 0.0 0.0 0.00 0.00 0.00 82 1011.0
20260506161844 17 0.0 0.0 0.00 0.00 0.00 82 1011.3
20260506160846 17 0.0 0.0 0.00 0.00 0.00 82 1011.1
20260506155844 17 0.0 0.0 0.00 0.00 0.00 82 1011.1
20260506154844 17 0.0 0.0 0.00 0.00 0.00 83 1011.1
20260506153844 17 0.0 0.0 0.00 0.00 0.00 82 1011.2
20260506152844 17 0.0 0.0 0.00 0.00 0.00 83 1011.1
20260506151845 17 0.0 0.0 0.00 0.00 0.00 83 1011.3
20260506150845 17 0.0 0.0 0.00 0.00 0.00 84 1011.6
20260506145845 17 0.0 0.0 0.00 0.00 0.00 84 1011.5
20260506144845 17 0.0 0.0 0.00 0.00 0.00 83 1011.5
20260506143845 17 0.0 0.0 0.00 0.00 0.00 84 1011.7
20260506142845 16 0.0 0.0 0.00 0.00 0.00 85 1011.7
20260506141845 16 0.0 0.0 0.00 0.00 0.00 86 1011.8
20260506140845 16 0.0 0.0 0.00 0.00 0.00 87 1011.6
20260506135844 16 0.0 0.0 0.00 0.00 0.00 88 1011.7
20260506134846 16 0.0 0.0 0.00 0.00 0.00 88 1011.7
20260506133844 15 0.0 0.0 0.00 0.00 0.00 87 1011.5
20260506132845 15 0.0 0.0 0.00 0.00 0.00 87 1012.0
20260506131845 15 0.0 0.0 0.00 0.00 0.00 87 1012.2
20260506130845 15 0.0 0.0 0.00 0.00 0.00 87 1012.3
20260506125845 15 0.0 0.0 0.00 0.00 0.00 86 1012.4
20260506124844 15 0.0 0.0 0.00 0.00 0.00 86 1012.7
20260506123845 15 0.0 0.0 0.00 0.00 0.00 86 1012.4
20260506122846 15 0.0 0.0 0.00 0.00 0.00 85 1012.7
20260506121845 15 0.0 0.0 0.00 0.00 0.00 84 1012.8
20260506120845 15 0.0 0.0 0.00 0.00 0.00 84 1012.6
20260506115844 15 0.0 0.0 0.00 0.00 0.00 84 1012.7
20260506114845 15 0.0 0.0 0.00 0.00 0.00 84 1012.6
20260506113844 15 0.0 0.0 0.00 0.00 0.00 83 1012.6
20260506112844 15 0.0 0.0 0.00 0.00 0.00 84 1012.8
20260506111845 16 0.0 0.0 0.00 0.00 0.00 83 1012.7
20260506110844 16 0.0 0.0 0.00 0.00 0.00 83 1013.1
20260506105844 16 0.0 0.0 0.00 0.00 0.00 83 1013.0
20260506104846 16 0.0 0.0 0.00 0.00 0.00 83 1013.0
20260506103844 15 0.0 0.0 0.00 0.00 0.00 82 1013.2
20260506102845 16 0.0 0.0 0.00 0.00 0.00 82 1013.0
20260506101844 16 0.0 0.0 0.00 0.00 0.00 83 1013.4
20260506100844 16 0.0 0.0 0.00 0.00 0.00 82 1013.3
20260506095844 16 0.0 0.0 0.00 0.00 0.00 82 1013.2
20260506094844 15 0.0 0.0 0.00 0.00 0.00 82 1013.5
20260506093845 15 0.0 0.0 0.00 0.00 0.00 82 1013.3
20260506092845 15 0.0 0.0 0.00 0.00 0.00 82 1013.3
20260506091844 15 0.0 0.0 0.00 0.00 0.00 82 1013.4
20260506090845 16 0.0 0.0 0.00 0.00 0.00 82 1013.3
20260506085844 16 0.0 0.0 0.00 0.00 0.00 84 1013.2
20260506084845 16 0.0 0.0 0.00 0.00 0.00 84 1013.1
20260506083844 15 0.0 0.0 0.00 0.00 0.00 86 1013.0